Find Kosmos-923

NORAD ID: 10120 Int'l Des: 1977-059 Owner: GUKOSR Country: SU operational
LEOCIRCULAR

Live Position

Loading 3D Globe...

About Kosmos-923

Description loading...

Upcoming Passes

Passes for default location (London). Set your location on the main map for personalized predictions.

Altitude History

Loading altitude history...

Two-Line Element Set

1 10120U 77059A 26104.79853941 .00000077 00000-0 37512-4 0 9997
2 10120 74.0469 138.9550 0011559 72.7728 287.4687 14.32883649546781
Epoch: Apr 14, 2026 • Age: 9 hours

Current Status

Altitude 784.0 km
Velocity 7.46 km/s
Sub-Earth Point 18.16°N, 45.2°E
Launch Date Jul 1, 1977
Age 48.7 years
Type other

Technical Details

Classification Payload
Mass 800.00 kg
Dry Mass 800.00 kg
Total Mass 800.00 kg
Length 3.00 m
Diameter 2.00 m
Span 3.00 m
Shape Cyl
Manufacturer NPOPM
Bus Type Strela-2M
Phase Status In Orbit
Owner/State GUKOSR/SU

Most Searched